Location: Unspecified
(0.0000°N, 0.0000°E)
Time: 16:56:45
(UTC+00:00)

STARLINK-1679 - Pass Details

Date: 17 November 2025
Orbit: 449 x 465 km, 53.1° (Epoch: 11 December)

Event Time Altitude Azimuth Distance (km) Brightness Sun altitude
Rises 17:51:12 0° 274° (W) 2,461 8.5 -1.5°
Enters shadow 18:03:06 -13° 11° (N) 4,199 7.8 -4.3°
Exits shadow 18:37:02 -72° 87° (E) 12,624 10.4 -12.3°
